SL-16 DEB

Satellite information

Favourite Embed

Satellite Type and Status

DEBRISIN ORBIT

Key statistics

Satellite SL-16 DEB at a glance.

Uptime

11902

Days in orbit

Revolutions

≈ 13.8

Per day

Orbit

LEO

Low Earth Orbit

Inclination

71.0

Latest

Satellite identification and parameters

Extended collection of information and parameters for SL-16 DEB.

Object identification

Identified? True

Debris? True

Object name: SL-16 DEB

International designator: 1993-016S

Object number (NORAD): 22608

Object ID (CCSDS): 22608

Country: COMMONWEALTH OF INDEPENDENT STATES (CIS)

Current information (Y/N): Y

RCS size: MEDIUM

Orbital parameters

Period: 103.993 minutes

Inclination: 71.0028 deg

SMA: 7325.361 km

Apoapsis: 1042.779 km

Periapsis: 851.674 km

RAAN: 274.1997 deg

Eccentricy: 0.01304406

Argument of periapsis: 173.9451 deg

Mean anomaly: 298.1927 deg

Mean motion: 13.8471112 rev/day

Mean motion (dot): 0.00000002 rev/day2

B* drag term: 0.000038237029 1/REarth

Two-line elements (TLE)

Creation date: Oct. 26, 2025, 2:54 a.m.

Reference frame: TEME

Reference center: EARTH

Epoch: Oct. 25, 2025, 8:49 a.m. UTC

TLE line 0: 0 SL-16 DEB

TLE line 1: 1 22608U 93016S 25298.36746497 .00000002 00000-0 38237-4 0 9998

TLE line 2: 2 22608 71.0028 274.1997 0130441 173.9451 298.1927 13.84711120646439

Live tracking on map

Real-time ground track for satellite SL-16 DEB.

In-orbit conjunctions

A list of the most updated potential collisions computed for object SL-16 DEB.

Target Orbit TCA Probability of collision Miss distance Type
DELTA 1 DEB SSO 2025-03-30 08:58:55 0.0008038117 50.0 (m) DEBRIS
FENGYUN 1C DEB SSO 2024-09-07 15:49:38 0.0001289843 459.0 (m) DEBRIS

Associated space launch

Second generation ELING satellite

SL-16 DEB was lifted into orbit during the mission ‘Zenit-2 | Tselina-2 13’, on board a Zenit-2 space rocket.

The launch took place on March 26, 1993, 2:21 a.m. from 45/1.

For more information about the launch, click the button.

Launch to space Zenit-2 | Tselina-2 13
Zenit-2 | Tselina-2 13

Agency: N/A

Status: Launch Successful

Launch date: March 26, 1993, 2:21 a.m. UTC

Rocket: Zenit-2

Launch pad: 45/1

Location: Baikonur Cosmodrome, Republic of Kazakhstan

...

Latest news about this satellite

There are no fresh news available about this satellite. Check back as we update our databases every day.


Newsletter sign-up

Weekly statistics, charts and insights to help you stay on top of the space industry.